Regional Weather Roundup
Issued by NWS

Home | Current Version | Previous Version | Graphics & Text | Print | Product List | Glossary On
Versions: 1 2 3 4 5 6 7 8 9 10 11 12 13 14 15 16 17 18 19 20 21 22 23 24 25 26 27 28 29 30 31 32 33 34 35 36 37 38 39 40 41 42 43 44 45 46 47 48 49 50
000
ASUS45 KPSR 231710
RWRAZ

ARIZONA REGIONAL HOURLY WEATHER ROUNDUP
NATIONAL WEATHER SERVICE PHOENIX AZ
1000 AM MST WED JUL 23 2014

NOTE: FAIR INDICATES FEW OR NO CLOUDS BELOW 12,000 FEET WITH NO
SIGNIFICANT WEATHER AND/OR OBSTRUCTIONS TO VISIBILITY.

AZZ001>003-036-231800-
NORTHWEST ARIZONA

CITY           SKY/WX    TMP DP  RH WIND       PRES   REMARKS
BULLHEAD CITY  SUNNY     99  32   9 S5        29.90F
KINGMAN        SUNNY     96  28   9 CALM      30.12R
$$

AZZ004>008-015-016-018-231800-
NORTH CENTRAL ARIZONA

CITY           SKY/WX    TMP DP  RH WIND       PRES   REMARKS
GRAND CANYON   SUNNY     85  36  17 SW10      30.39S
WILLIAMS       MOSUNNY   82  36  18 E5        30.46S
PRESCOTT       SUNNY     90  40  17 N7        30.27S
FLAGSTAFF      CLOUDY    80  41  24 CALM      30.43F
PAYSON         SUNNY     86  52  30 VRB5      30.30F
PAGE           SUNNY     92  42  17 SW3       30.19F
$$

AZZ009>014-017-231800-
NORTHEAST ARIZONA

CITY           SKY/WX    TMP DP  RH WIND       PRES   REMARKS
WINSLOW        SUNNY     91  49  23 E12       30.27S
SAINT JOHNS    SUNNY     85  51  31 VRB6      30.34F
WINDOW ROCK    SUNNY     84  43  23 E9        30.45F
SHOW LOW       MOSUNNY   82  45  26 CALM      30.41S
$$

AZZ023-231800-
GREATER PHOENIX AREA

CITY           SKY/WX    TMP DP  RH WIND       PRES   REMARKS
PHOENIX        PTSUNNY  105  57  20 SE10      29.91F HX 104
BUCKEYE          N/A    100  55  22 E17       29.91F
GLENDALE       PTSUNNY  104  57  21 NE12      29.93F HX 103
LUKE AFB       NOT AVBL
DEER VALLEY    MOSUNNY  103  53  19 SE9       29.94S HX 101
SCOTTSDALE     SUNNY    101  57  23 E8        29.96S HX 100
MESA-FALCON    PTSUNNY  102  55  21 NE9       29.94F HX 101
MESA-GATEWAY   PTSUNNY  100  55  22 S7        29.96F
CHANDLER       PTSUNNY  100  59  25 SE9       29.94S HX 100
$$

AZZ027-028-231800-
SOUTHWEST MARICOPA COUNTY AND PINAL COUNTY

CITY           SKY/WX    TMP DP  RH WIND       PRES   REMARKS
CASA GRANDE    MOSUNNY  100  57  23 E14       29.96S
GILA BEND      PTSUNNY  108  39   9 VRB1      29.91S HX 101
$$

AZZ503-504-507>509-231800-
SOUTHEAST ARIZONA

CITY           SKY/WX    TMP DP  RH WIND       PRES   REMARKS
TUCSON         SUNNY     97  55  24 SE10      30.07F
DAVIS-MONTHAN  MOSUNNY   95  57  27 SE12      30.06F
RYAN FIELD       N/A     97  55  24 E9        30.06F
NOGALES        SUNNY     89  55  31 VRB3      30.16F
SIERRA VISTA   PTSUNNY   86  55  35 SE8       30.26R
DOUGLAS        SUNNY     87  55  33 E12       30.22S
SAFFORD        SUNNY     88  56  33 S7        30.15S
$$

AZZ020-021-025-026-031-231800-
SOUTHWEST ARIZONA

CITY           SKY/WX    TMP DP  RH WIND       PRES   REMARKS
YUMA           MOSUNNY  103  43  13 NW5       29.85F
$$

CAZ031-033-041-043-047-048-061-231800-
SOUTHERN CALIFORNIA

CITY           SKY/WX    TMP DP  RH WIND       PRES   REMARKS
DOWNTOWN L.A.  SUNNY     81  59  47 CALM      29.99F
L.A. AIRPORT   SUNNY     76  61  59 W8        30.01S
SAN DIEGO      MOSUNNY   76  61  59 W6        30.01F
BURBANK        SUNNY     81  51  35 SE3       30.01F
ONTARIO        MOSUNNY   83  50  31 SW3       30.02F
RIVERSIDE      SUNNY     82  51  34 VRB3      30.01F
PALM SPRINGS   SUNNY    101  37  11 W3        29.89F
EL CENTRO NAS  MOSUNNY  102  34   9 VRB3      29.84S
IMPERIAL       SUNNY    102  38  11 NW6       29.84S
BLYTHE         SUNNY    102  35  10 W7        29.87S
NEEDLES        SUNNY    103  30   8 SE3       29.91S
$$

NVZ020-UTZ003-231800-
SOUTHERN NEVADA-UTAH

CITY           SKY/WX    TMP DP  RH WIND       PRES   REMARKS
LAS VEGAS      SUNNY     97  31   9 S8        29.96F
SALT LAKE CITY MOSUNNY   94  32  11 S23       30.11F
$$

NMZ009-TXZ055-231800-
NEW MEXICO-WEST TEXAS

CITY           SKY/WX    TMP DP  RH WIND       PRES   REMARKS
ALBUQUERQUE    MOSUNNY   80  55  42 VRB3      30.38F
EL PASO        MOSUNNY   87  59  38 E12G20    30.24F
$$


........................KEY........................
SKY/WX - SKY CONDITION/WEATHER
TMP    - TEMPERATURE IN FAHRENHEIT
DP     - DEW POINT IN FAHRENHEIT
RH     - RELATIVE HUMIDITY IN PERCENT
WIND   - DIRECTION AND SPEED IN MILES PER HOUR (MPH)
VRB    - VARIABLE WIND DIRECTION
PRES   - MEAN SEA LEVEL PRESSURE IN INCHES OF MERCURY
         F - FALLING PRESSURE   R - RISING PRESSURE
         S - STEADY PRESSURE
VSB    - VISIBILITY IN MILES
HX     - HEAT INDEX IN FAHRENHEIT
WCI    - WIND CHILL INDEX IN FAHRENHEIT
TC     - TEMPERATURE IN CELSIUS WHICH IS ALSO KNOWN AS
         TEMPERATURE IN CENTIGRADE
AFB    - AIR FORCE BASE
         LUKE AFB IS LUKE AIR FORCE BASE
         DAVIS-MONTHAN IS DAVIS-MONTHAN AIR FORCE BASE
NAS    - NAVAL AIR STATION
         EL CENTRO NAS IS EL CENTRO NAVAL AIR STATION
N/A    - NOT AVAILABLE


USA.gov is the U.S. government's official web portal to all federal, state and local government web resources and services.